Mombasa, Kenya

4:34 AM EAT on April 24, 2018 (GMT +0300)
Mombasa

Weather History for HKMO - August, 2012

Change the Weather History Date:

Thursday, August 2, 2012

  Actual Average Record
Temperature  
Mean Temperature 78 °F -  
Max Temperature 85 °F 84 °F 85 °F (2012)
Min Temperature 71 °F 67 °F 64 °F (2016)
Cooling Degree Days 13    
Growing Degree Days 28 (Base 50)    
Moisture  
Dew Point 69 °F    
Average Humidity 74    
Maximum Humidity 94    
Minimum Humidity 50    
Precipitation  
Precipitation 0.00 in 0.09 in - ()
Sea Level Pressure  
Sea Level Pressure 30.03 in    
Wind  
Wind Speed 7 mph ()    
Max Wind Speed 15 mph    
Max Gust Speed -    
Visibility 8.4 miles    
Events      
Averages and records for this station are not official NWS values.
T = Trace of Precipitation, MM = Missing Value Source: Averaged Metar Reports

Daily Weather History Graph

Daily Weather History Graph

Search for Another Location

Airport or City:

Astronomy

Aug. 02, 2012 Rise Set
Actual Time 6:29 AM EAT 6:26 PM EAT
Civil Twilight 6:07 AM EAT 6:47 PM EAT
Nautical Twilight 5:42 AM EAT 7:13 PM EAT
Astronomical Twilight 5:17 AM EAT 7:38 PM EAT
Moon 6:45 PM EAT (8/2) 6:25 AM EAT (8/2)
Length of Visible Light 12h 40m
Length of Day
11h 56m
Full, 100% of the Moon is Illuminated
Aug 2
Full
Aug 9
Last Quarter
Aug 17
New
Aug 24
First Quarter
Aug 31
Full

Hourly Weather History & Observations

Time (EAT) Temp. Heat Index Dew Point Humidity Pressure Visibility Wind Dir Wind Speed Gust Speed Precip Events Conditions
3:00 AM 74 °F - 70 °F 84% 29.99 in 19 mi WSW 5.8 mph - -   Scattered Clouds
3:00 AM 75.2 °F - 69.8 °F 83% 29.98 in 6.2 mi WSW 5.8 mph - N/A   Partly Cloudy
4:00 AM 73.4 °F - 71.6 °F 94% 29.98 in 6.2 mi SSW 4.6 mph - N/A   Partly Cloudy
5:00 AM 73.4 °F - 71.6 °F 94% 30.01 in 6.2 mi SSW 6.9 mph - N/A   Partly Cloudy
6:00 AM 73.4 °F - 71.6 °F 94% 30.01 in 6.2 mi SW 8.1 mph - N/A   Partly Cloudy
7:00 AM 73.4 °F - 71.6 °F 94% 30.04 in 6.2 mi SW 5.8 mph - N/A   Partly Cloudy
8:00 AM 75.2 °F - 69.8 °F 83% 30.06 in 6.2 mi SW 6.9 mph - N/A   Mostly Cloudy
9:00 AM 77 °F - 70 °F 74% 30.08 in 19 mi WSW 6.9 mph - -   Partly Cloudy
9:00 AM 77.0 °F - 69.8 °F 78% 30.06 in 6.2 mi WSW 6.9 mph - N/A   Scattered Clouds
10:00 AM 80.6 °F 82.7 °F 66.2 °F 61% 30.09 in 6.2 mi South 5.8 mph - N/A   Mostly Cloudy
11:00 AM 82.4 °F 84.6 °F 66.2 °F 58% 30.09 in 6.2 mi South 11.5 mph - N/A   Mostly Cloudy
12:00 PM 84.2 °F 87.3 °F 68.0 °F 58% 30.06 in 6.2 mi SSE 9.2 mph - N/A   Scattered Clouds
1:00 PM 84.2 °F 86.6 °F 66.2 °F 55% 30.06 in 6.2 mi SSE 10.4 mph - N/A   Scattered Clouds
2:00 PM 84.2 °F 87.3 °F 68.0 °F 58% 30.04 in 6.2 mi SSE 15.0 mph - N/A   Partly Cloudy
3:00 PM 83 °F - 67 °F 50% 30.01 in 19 mi South 11.5 mph - -   Scattered Clouds
3:00 PM 82.4 °F 85.4 °F 68.0 °F 62% 30.01 in 6.2 mi South 11.5 mph - N/A   Partly Cloudy
4:00 PM 82.4 °F 85.4 °F 68.0 °F 62% 29.98 in 6.2 mi South 12.7 mph - N/A   Partly Cloudy
5:00 PM 80.6 °F 83.2 °F 68.0 °F 65% 30.01 in 6.2 mi South 11.5 mph - N/A   Partly Cloudy
6:00 PM 78.8 °F - 69.8 °F 74% 30.01 in 6.2 mi South 8.1 mph - N/A   Partly Cloudy
7:00 PM 78.8 °F - 69.8 °F 74% 30.01 in 6.2 mi South 8.1 mph - N/A   Partly Cloudy
8:00 PM 77.0 °F - 69.8 °F 78% 30.04 in 6.2 mi SSW 8.1 mph - N/A   Partly Cloudy
9:00 PM 76 °F - 70 °F 77% 30.04 in 19 mi SSW 6.9 mph - -   Scattered Clouds
9:00 PM 75.2 °F - 69.8 °F 83% 30.04 in 6.2 mi SSW 6.9 mph - N/A   Partly Cloudy